Home   Weather   Jeffersonville   Past weeks
Flag for USA

Past Weather in Jeffersonville, Indiana, USA — Yesterday and Last 2 Weeks

Now
43 °F

Light rain. Mostly cloudy.


Feels Like: 39 °F
Forecast: 45 / 40 °F
Wind: 7 mph from North

Location: Bowman Field

Current Time: Apr 20, 2019 at 3:18:58 pm

Latest Report: Apr 20, 2019 at 1:53 pm


Visibility: 10 mi

Pressure: 29.72 "Hg

Humidity: 82%

Dew Point: 38 °F

Location of JeffersonvilleLocation

Past Weather in Jeffersonville — Graph

°F

Jeffersonville Temperature Yesterday

Maximum temperature yesterday: 56 °F (at 12:03 am)
Minimum temperature yesterday: 44 °F (at 10:53 pm)
Average temperature yesterday: 48 °F

High & Low Weather Summary for the Past Weeks

 TemperatureHumidityPressure
High81 °F (Apr 11, 4:53 pm)97% (Apr 7, 1:15 pm)30.19 "Hg (Apr 7, 1:15 pm)
Low37 °F (Apr 15, 7:53 am)27% (Apr 9, 7:53 pm)29.33 "Hg (Apr 14, 2:53 pm)
Average59 °F68%29.84 "Hg
* Reported Apr 5 1:03 pm — Apr 20 1:53 pm, Jeffersonville. Weather by CustomWeather, © 2019

Note: Actual official high and low records may vary slightly from our data, if they occured in-between our weather recording intervals... More about our weather records

Advertising

Jeffersonville Weather History for the Previous 24 Hours

Scroll right to see more
 ConditionsComfort  
Time TempWeatherWind HumidityBarometerVisibility
1:53 pm
Sat, Apr 20
43 °FLight rain. Mostly cloudy.7 mph82%29.72 "Hg10 mi
1:27 pm43 °FLight rain. Mostly cloudy.12 mph82%29.70 "Hg10 mi
12:53 pm42 °FLight rain. Mostly cloudy.10 mph89%29.70 "Hg7 mi
11:53 am42 °FOvercast.7 mph85%29.67 "Hg10 mi
11:25 am42 °FLight rain. Overcast.8 mph85%29.65 "Hg10 mi
10:53 am40 °FLight rain. Mostly cloudy.3 mph89%29.64 "Hg10 mi
10:17 am39 °FLight rain. Mostly cloudy.10 mph86%29.63 "Hg8 mi
10:14 am39 °FLight rain. Mostly cloudy.8 mph86%29.63 "Hg8 mi
9:01 am39 °FRain. Fog.6 mph89%29.59 "Hg4 mi
7:53 am38 °FRain. Fog.9 mph90%29.58 "Hg5 mi
7:04 am39 °FHeavy rain. Fog.8 mph86%29.56 "Hg4 mi
6:53 am39 °FRain. Fog.7 mph89%29.56 "Hg5 mi
6:32 am39 °FRain. Fog.No wind93%29.56 "Hg5 mi
5:53 am40 °FRain. Fog.9 mph89%29.55 "Hg4 mi
5:26 am40 °FHeavy rain. Fog.8 mph89%29.55 "Hg4 mi
4:53 am41 °FRain. Fog.5 mph89%29.54 "Hg5 mi
4:12 am42 °FRain. Mostly cloudy.5 mph89%29.52 "Hg7 mi
3:53 am42 °FRain. Fog.7 mph89%29.53 "Hg5 mi
2:53 am42 °FLight rain. Fog.6 mph92%29.52 "Hg4 mi
1:53 am43 °FOvercast.8 mph89%29.52 "Hg10 mi
12:53 am44 °FRain. Fog.6 mph89%29.52 "Hg6 mi
11:53 pm
Fri, Apr 19
44 °FRain. Fog.15 mph93%29.48 "Hg5 mi
11:30 pm44 °FHeavy rain. Fog.13 mph93%29.51 "Hg4 mi
11:18 pm44 °FHeavy rain. Fog.7 mph96%29.55 "Hg4 mi
10:53 pm44 °FHeavy rain. Fog.8 mph93%29.54 "Hg2 mi
10:29 pm45 °FHeavy rain. Fog.5 mph93%29.55 "Hg2 mi
10:01 pm45 °FHeavy rain. Fog.9 mph90%29.54 "Hg2 mi
9:08 pm46 °FLight rain. Overcast.14 mph86%29.48 "Hg9 mi
7:53 pm46 °FHeavy rain. Fog.13 mph89%29.49 "Hg3 mi
7:32 pm46 °FHeavy rain. Fog.12 mph89%29.49 "Hg2 mi
7:13 pm46 °FRain. Fog.9 mph89%29.49 "Hg4 mi
6:53 pm46 °FHeavy rain. Fog.13 mph89%29.49 "Hg1 mi
6:26 pm46 °FLight rain. Fog.12 mph93%29.48 "Hg4 mi
6:19 pm47 °FRain. Fog.8 mph90%29.48 "Hg4 mi
6:00 pm47 °FLight rain. Mostly cloudy.9 mph90%29.49 "Hg7 mi
5:27 pm47 °FLight rain. Low clouds.10 mph90%29.49 "Hg8 mi
4:56 pm47 °FLight rain. Fog.10 mph90%29.50 "Hg3 mi
4:18 pm46 °FLight rain. Fog.10 mph93%29.51 "Hg4 mi
4:08 pm46 °FLight rain. Fog.10 mph89%29.51 "Hg3 mi
3:18 pm46 °FLight rain. Fog.10 mph89%29.54 "Hg4 mi
3:07 pm46 °FLight rain. Fog.8 mph89%29.54 "Hg3 mi
Weather by CustomWeather, © 2019

See weather overview